Simone Barontini

S.E.F. STAMURA ANCONA A.S.D.
05-01-1999


Informazioni sul tesseramento aggiornate al 2018


Condividi con
Seguici su:


È nato ad Ancona il 5 gennaio 1999, 1.87x74kg
Società: Sef Stamura Ancona
Allenatore: Fabrizio Dubbini

Ha conosciuto l’atletica per caso nel 2011 soprattutto per comodità della mamma che, quando la sorella ha iniziato a fare attività fisica, li ha iscritti alla stessa società di atletica dove il tecnico Fabrizio Dubbini l’ha indirizzato al mezzofondo. Quando i 1200 siepi sono tornati nel programma dei cadetti, alla quinta gara sulla distanza, ha vinto il tricolore nel 2014 con la MPN (3:20.71). Potendo disporre di un impianto indoor vicino casa, “Baro” non ha mancato l’appuntamento con il titolo dei 1000 allievi al coperto e anche qui con il primato per due volte. Dopo una sfortunata esperienza all’Eyof nel 2015, si è ripresentato a Tbilisi nel 2016 sugli 800 per gli Europei U18, forte del record italiano allievi di 1:48.76, e ha vinto il bronzo sfoggiando un notevole sprint. Nel 2018 ha conquistato la finale mondiale U20 con il miglior crono degli ultimi 27 anni per uno junior azzurro (1:47.35), terzo di sempre nella categoria, e vanta un PB di 47.63 sui 400. Vive e si allena ad Ancona, dove studia economia e commercio. Appassionato di “softair”, l’attività ludica che simula tattiche militari, anche se ormai non ha più il tempo per praticarla. In cima alla sua playlist musicale c’è Jovanotti.

Curriculum (800m): NC: 2 (ind. 17-18); WJC: 2018 (5); EJC: 2017 (sf); EYC: 2016 (3); EYOF: 2015 (fin).

60 piani

Anno Data Tipo Cr. Cat. Piazz. Prestaz. Vento Città  
201206/05PERM5 se- 1 8.81Osimo
 

200 metri

Anno Data Tipo Cr. Cat. Piazz. Prestaz. Vento Città  
201215/01IERM1 se- 2 29.33 Ancona
 

400 metri

Anno Data Tipo Cr. Cat. Piazz. Prestaz. Vento Città  
201826/05PEJM1 se- 1 47.63San Benedetto Del Tronto
201702/09PEJM1 se- 4 48.37Macerata
201720/05PEJM1 se- 2 48.85San Bendetto Del Tronto
201607/05PEAM2 se- 4 50.20Fermo
201502/05PEAM1 se- 2 50.83Fermo
 

600 metri

Anno Data Tipo Cr. Cat. Piazz. Prestaz. Vento Città  
201411/06PECM2 se- 1 1:23.38Ancona
201302/07PECM1 se- 1 1:29.24Ancona
201402/03IECM3 su- 1 1:29.51Ancona
201206/05PERM1 se- 1 1:48.47Osimo
201223/06PERM2 se- 3 1:51.10Porto Sant Elpidio
201123/01IERM5 se- 1 1:58.71 Ancona
201130/06PERM6 su- 1 2:00.33Ancona
 

800 metri

Anno Data Tipo Cr. Cat. Piazz. Prestaz. Vento Città  
201814/07PEJM3 sf- 2 1:47.35Tampere
201813/05PEJM2 se- 3 1:47.88Castiglione Della Pescaia
201802/06PEJM1 fi- 1 1:48.14Agropoli
201809/08PEJM5 ba- 3 1:48.53Berlino
201618/06PEAM1 fi- 1 1:48.76Jesolo
201719/02IEJM1 se- 3 1:49.40Ancona
201710/06PEJM1 fi- 1 1:49.64Firenze
201813/07PEJM1 ba- 2 1:49.73Tampere
201617/07PEAM3 fi- 1 1:49.78Tbilisi
201727/05PEJM6 ba- 1 1:49.79Oordegem
201722/07PEJM4 sf- 1 1:49.82Grosseto
201818/02IEJM1 se- 3 1:49.99Ancona
201810/02IEJM2 se- 3 1:50.30Gent
201730/06PEJM3 ba- 2 1:50.59Trieste
201815/07PEJM5 fi- 1 1:51.08Tampere
201616/07PEAM3 sf- 1 1:51.19Tbilisi
201705/02IEJM1 se- 4 1:51.21Ancona
201804/02IEJM1 se- 4 1:51.22Ancona
201626/05PEAM5 se- 2 1:51.88Orvieto
201721/07PEJM1 ba- 4 1:52.02Grosseto
201510/06PEAM1 se- 1 1:53.11Ancona
201503/06PEAM4 se- 5 1:53.40Imola
201510/05PEAM3 se- 1 1:53.73Macerata
201801/06PEJM1 ba- 3 1:53.81Agropoli
201518/07PEAM1 se- 2 1:54.39Ascoli Piceno
201610/01IEAM2 se- 1 1:54.95Ancona
201615/05PEAM2 se- 2 1:55.15Bressanone
201617/06PEAM1 ba- 1 1:55.52Jesolo
201709/06PEJM1 ba- 3 1:55.58Firenze
201528/07PEAM2 ba- 3 1:56.09Tbilisi
201517/01IEAM1 se- 2 1:56.79Ancona
201615/07PEAM2 ba- 3 1:57.04Tbilisi
201524/05PEAM10 se- 2 2:07.88Bressanone
201407/06PECM1 su- 1 2:09.47Ancona
 

1000 metri

Anno Data Tipo Cr. Cat. Piazz. Prestaz. Vento Città  
201605/07PEAM1 su- 1 2:26.05Ancona
201614/02IEAM1 se- 3 2:27.32Ancona
201515/02IEAM1 se- 4 2:28.75Ancona
201420/12IECM2 su- 1 2:33.87Ancona
201404/06PECM1 su- 1 2:39.06Imola
201426/07PECM1 se- 2 2:39.67Ascoli Piceno
201426/04PECM1 su- 1 2:40.26Ascoli Piceno
201321/12IECM1 su- 1 2:42.65Ancona
201313/07PECM2 se- 2 2:43.48Ascoli Piceno
201321/09PMCM3 su- 1 2:43.6Campobasso
201412/01IECM2 se- 1 2:43.61Ancona
201313/10PECM6 se- 1 2:45.85Jesolo
201314/09PECM1 su- 1 2:46.49Ancona
201305/06PECM3 se- 1 2:47.81Imola
201428/05PECM4 ba- 1 2:49.31L Aquila
201322/06PECM1 su- 1 2:50.80Macerata
201430/08PECM1 su- 1 2:51.65Montecassiano
201324/08PECM1 su- 1 2:52.00Camerino
201318/05PECM3 se- 2 2:54.32Macerata
201307/09PECM1 su- 1 2:54.39Macerata
201327/04PECM1 su- 1 2:55.01Ascoli Piceno
201307/07PECM1 su- 1 2:55.65Narni
201316/03IECM4 se- 1 3:03.26Ancona
201320/01IECM5 se- 1 3:04.69 Ancona
201214/10PMRM1 se- 1 3:10.4Recanati
201203/03IERM2 se- 1 3:16.74Ancona
201116/10PERM3 se- 1 3:18.17Corridonia
201203/06PMRM3 su- 1 3:18.8Castelfidardo
201105/10PERM5 su- 1 3:23.89Fermo
201104/06PERM6 su- 1 3:25.96Castelfidardo
201126/02IERM8 se- 2 3:36.17Ancona
 

1500 metri

Anno Data Tipo Cr. Cat. Piazz. Prestaz. Vento Città  
201803/02IEJM1 se- 2 3:51.99Ancona
201820/01IEJM1 se- 1 3:54.47Ancona
201729/08PEJM10 su- 1 3:55.07Rovereto
201704/03IEJM2 se- 1 3:55.45Halle
201602/06PEAM9 se- 2 3:56.89Roma
201627/02IEAM6 su- 1 3:57.28Padova
201721/01IEJM1 se- 1 3:58.40Ancona
201704/02IEJM1 su- 1 3:59.10Ancona
201714/06PEJM1 se- 2 3:59.48Serravalle
201517/05PEAM9 su- 1 3:59.70Gavardo
201803/03IEJM5 su- 1 3:59.72Nantes
201617/09PEAM1 su- 1 4:00.83Ancona
201524/01IEAM7 se- 1 4:00.90Ancona
201805/05PEJM2 se- 1 4:02.03Macerata
201527/06PEAM7 se- 1 4:06.21Ancona
 

2000 metri

Anno Data Tipo Cr. Cat. Piazz. Prestaz. Vento Città  
201415/06PECM3 su- 1 5:57.49Fidenza
201406/09PECM1 su- 1 6:00.33Majano
201414/09PECM1 su- 1 6:14.02Fermo
201309/06PECM12 su- 1 6:15.29Fidenza
201315/09PECM2 su- 1 6:17.80Ancona
201305/05PECM1 su- 1 6:30.83Fermo
 

3000 metri

Anno Data Tipo Cr. Cat. Piazz. Prestaz. Vento Città  
201722/04PEJM1 se- 1 8:53.06Ascoli Piceno
201525/04PEAM4 se- 3 8:55.31Ascoli Piceno
201623/04PEAM6 se- 2 9:08.74Ascoli Piceno
201520/09PEAM1 su- 1 9:40.55Ancona
 

Corsa 30' Allievi

Anno Data Tipo Cr. Cat. Piazz. Prestaz. Vento Città  
201512/04PEAM1 su- 1 8470Sanelpidio A Mare
201616/04PEAM1 su- 1 8568Osimo
 

Corsa strada Km 10

Anno Data Tipo Cr. Cat. Piazz. Prestaz. Vento Città  
201631/12SMAM53 su- 1 34:44Roma
 

1200 siepi H 76 S.R.

Anno Data Tipo Cr. Cat. Piazz. Prestaz. Vento Città  
201412/10PECM1 se- 3 3:20.71Borgo Valsugana
201409/07PECM2 su- 1 3:25.79Ancona
201413/09PECM1 su- 1 3:26.58Fermo
201420/09PECM1 su- 1 3:27.36Campobasso
201404/05PECM1 su- 1 3:32.40Macerata
 

2000 siepi H91

Anno Data Tipo Cr. Cat. Piazz. Prestaz. Vento Città  
201519/09PEAM1 su- 1 6:32.17Ancona
 

60 Hs H 60

Anno Data Tipo Cr. Cat. Piazz. Prestaz. Vento Città  
201223/06PERM2 se- 1 10.98Porto Sant Elpidio
 

Salto in alto/HJ

Anno Data Tipo Cr. Cat. Piazz. Prestaz. Vento Città  
201223/06PRM3 se- 1 1.37Porto Sant Elpidio
201207/07PRM3 su- 1 1.34Montecassiano
201125/06PRM5 su- 1 1.25Macerata
 

Salto in lungo/LJ

Anno Data Tipo Cr. Cat. Piazz. Prestaz. Vento Città  
201215/01IRM4 se- 2 3.98 Ancona
 

Vortex

Anno Data Tipo Cr. Cat. Piazz. Prestaz. Vento Città  
201130/06PRM9 su- 1 33.35Ancona
 

BIATHLON

Anno Data Tipo Cr. Cat. Piazz. Prestaz. Vento Città  
201205/05PRM1 su- 1 997Osimo
201130/06PRM7 su- 1 679Ancona
 

TRIATHLON

Anno Data Tipo Cr. Cat. Piazz. Prestaz. Vento Città  
201223/06PRM5 su- 1 1674Porto Sant Elpidio
 

Attenzione: le schede-atleti sono composte automaticamente sulla base dei dati inseriti all'interno degli archivi nazionali aggiornati dal 2005 al 14-12-2018. Se un risultato non compare nelle graduatorie, quindi, è segno che lo stesso, con ogni probabilità, non è stato ancora inserito. Il processo di inserimento è di competenza dei Comitati Regionali sul cui territorio ha avuto luogo la manifestazione: eventuali segnalazioni per errori od omissioni, vanno dunque indirizzate agli stessi (potete utilizzare l'elenco con relativi contatti). Considerato però che solo le principali manifestazioni nazionali sono oggetto di inserimenti "in diretta" (sul posto di gara), mentre le altre, incluse le internazionali in programma all'estero, vengono inserite in tempi successivi, è opportuno attendere un ragionevole lasso di tempo prima di procedere ad una segnalazione.

Stickers


Non ventosi

GaraTipoPrestazioneVentoAnnoCittà
60 pianiPista 8.812012Osimo
200 metriIndoor 29.332012 Ancona
400 metriPista 47.632018San Benedetto Del Tronto
600 metriPista 1:23.382014Ancona
600 metriIndoor 1:29.512014Ancona
800 metriPista 1:47.352018Tampere
800 metriIndoor 1:49.402017Ancona
1000 metriPista 2:26.052016Ancona
1000 metriIndoor 2:27.322016Ancona
1500 metriIndoor 3:51.992018Ancona
1500 metriPista 3:55.072017Rovereto
2000 metriPista 5:57.492014Fidenza
3000 metriPista 8:53.062017Ascoli Piceno
Corsa 30' AllieviPista 84702015Sanelpidio A Mare
Corsa strada Km 10Strada 34:442016Roma
1200 siepi H 76 S.R.Pista 3:20.712014Borgo Valsugana
2000 siepi H91Pista 6:32.172015Ancona
60 Hs H 60Pista 10.982012Porto Sant Elpidio
Salto in alto/HJPista 1.372012Porto Sant Elpidio
Salto in lungo/LJIndoor 3.982012 Ancona
VortexPista 33.352011Ancona
BIATHLONPista 9972012Osimo
TRIATHLONPista 16742012Porto Sant Elpidio

AnnoTipo mov.CategoriaSocietà
2018RinnovoJuniores MaschileS.E.F. STAMURA ANCONA A.S.D.
2017RinnovoJuniores MaschileS.E.F. STAMURA ANCONA A.S.D.
2016RinnovoAllieviS.E.F. STAMURA ANCONA A.S.D.
2015RinnovoAllieviS.E.F. STAMURA ANCONA A.S.D.
2014RinnovoCadettiS.E.F. STAMURA ANCONA A.S.D.
2013RinnovoCadettiS.E.F. STAMURA ANCONA A.S.D.
2012RinnovoRagazzi MaschileS.E.F. STAMURA ANCONA A.S.D.
2011NuovoRagazzi MaschileS.E.F. STAMURA ANCONA A.S.D.
AnnoInizioFineTipoDenominazione
201827-1105-12RadunoMezzofondo U23 Veloce Prolungato - Tirrenia (Pi)
201801-1012-10RadunoMezzofondo vel.prolungato U25 - Tirrenia (Pi)
201807-0812-08NazionaleCampionati Europei - Berlino (GER)
201810-0715-07Nazionale
201802-0728-07RadunoMezzofondo - Predazzo (TN)
201801-0707-07RadunoMezzofondo - Marcia U 20 - Predazzo (Tn)
201823-0403-05RadunoMezzofondo U25 - Bussolengo (Vr)
201819-0331-03RadunoMezzofondo U25 - Tirrenia (Pi)
201802-0106-01RadunoGiovanile U20 - Grosseto
201720-0723-07NazionaleCampionati Europei - Grosseto
201704-0304-03NazionaleIncontro int.indoor u20 ger-fr-ita
201702-0107-01RadunoGiovanile Mezzofondo-Marcia-Lanci - Grosseto
201614-0717-07NazionaleCampionati Europei Allievi - Tbilisi (GEO)
201627-0227-02NazionaleTRIANGOLARE INDOOR - PADOVA